Time,TemperatureF,DewpointF,PressureIn,WindDirection,WindDirectionDegrees,WindSpeedMPH,WindSpeedGustMPH,Humidity,HourlyPrecipIn,Conditions,Clouds,dailyrainin,SoftwareType,DateUTC
2013-07-09 00:02:00,70.0,69.4,29.92,NE,45,0.0,-999.0,98,-99.99,,,0.00,Acu-Link.com,2013-07-09 04:02:00,
2013-07-09 00:17:00,69.6,69.0,29.92,North,0,0.0,-999.0,98,-99.99,,,0.00,Acu-Link.com,2013-07-09 04:17:00,
2013-07-09 00:33:00,69.6,69.0,29.92,SE,135,0.0,-999.0,98,-99.99,,,0.00,Acu-Link.com,2013-07-09 04:33:00,
2013-07-09 00:48:00,69.4,68.8,29.92,SE,135,0.0,-999.0,98,-99.99,,,0.00,Acu-Link.com,2013-07-09 04:48:00,
2013-07-09 01:04:00,69.1,68.5,29.92,SSE,157,0.0,-999.0,98,-99.99,,,0.00,Acu-Link.com,2013-07-09 05:04:00,
2013-07-09 01:19:00,68.9,68.3,29.92,NNE,22,0.0,-999.0,98,-99.99,,,0.00,Acu-Link.com,2013-07-09 05:19:00,
2013-07-09 01:34:00,68.9,68.3,29.92,NNE,22,0.0,-999.0,98,-99.99,,,0.00,Acu-Link.com,2013-07-09 05:34:00,
2013-07-09 01:49:00,68.5,67.9,29.92,SSE,157,0.0,-999.0,98,-99.99,,,0.00,Acu-Link.com,2013-07-09 05:49:00,
2013-07-09 02:05:00,68.4,67.8,29.92,SSE,157,0.0,-999.0,98,-99.99,,,0.00,Acu-Link.com,2013-07-09 06:05:00,
2013-07-09 02:20:00,68.4,67.8,29.92,NNE,22,0.0,-999.0,98,-99.99,,,0.00,Acu-Link.com,2013-07-09 06:20:00,
2013-07-09 02:35:00,68.4,67.8,29.92,NNE,22,0.0,-999.0,98,-99.99,,,0.00,Acu-Link.com,2013-07-09 06:35:00,
2013-07-09 02:50:00,68.0,67.4,29.92,NNE,22,0.0,-999.0,98,-99.99,,,0.00,Acu-Link.com,2013-07-09 06:50:00,
2013-07-09 03:06:00,68.0,67.4,29.91,NNE,22,0.0,-999.0,98,-99.99,,,0.00,Acu-Link.com,2013-07-09 07:06:00,
2013-07-09 03:21:00,68.0,67.4,29.91,NNE,22,0.0,-999.0,98,-99.99,,,0.00,Acu-Link.com,2013-07-09 07:21:00,
2013-07-09 03:36:00,68.0,67.4,29.90,NNE,22,0.0,-999.0,98,-99.99,,,0.00,Acu-Link.com,2013-07-09 07:36:00,
2013-07-09 04:07:00,67.8,67.2,29.91,NNW,337,0.0,-999.0,98,-99.99,,,0.00,Acu-Link.com,2013-07-09 08:07:00,
2013-07-09 04:22:00,67.8,67.2,29.91,NNE,22,0.0,-999.0,98,-99.99,,,0.00,Acu-Link.com,2013-07-09 08:22:00,
2013-07-09 04:37:00,67.8,67.2,29.92,NNE,22,0.0,-999.0,98,-99.99,,,0.00,Acu-Link.com,2013-07-09 08:37:00,
2013-07-09 04:53:00,67.6,67.0,29.91,South,180,0.0,-999.0,98,-99.99,,,0.00,Acu-Link.com,2013-07-09 08:53:00,
2013-07-09 05:08:00,67.3,66.7,29.91,NNE,22,0.0,-999.0,98,-99.99,,,0.00,Acu-Link.com,2013-07-09 09:08:00,
2013-07-09 05:23:00,67.5,66.9,29.92,South,180,1.1,-999.0,98,-99.99,,,0.00,Acu-Link.com,2013-07-09 09:23:00,
2013-07-09 05:38:00,67.3,66.7,29.92,NNE,22,0.0,-999.0,98,-99.99,,,0.00,Acu-Link.com,2013-07-09 09:38:00,
2013-07-09 05:53:00,67.3,66.7,29.93,NNE,22,2.2,-999.0,98,-99.99,,,0.00,Acu-Link.com,2013-07-09 09:53:00,
2013-07-09 06:08:00,67.6,67.0,29.92,South,180,0.0,-999.0,98,-99.99,,,0.00,Acu-Link.com,2013-07-09 10:08:00,
2013-07-09 06:24:00,67.5,66.9,29.93,South,180,0.0,-999.0,98,-99.99,,,0.00,Acu-Link.com,2013-07-09 10:24:00,
2013-07-09 06:39:00,67.6,67.0,29.93,South,180,0.0,-999.0,98,-99.99,,,0.00,Acu-Link.com,2013-07-09 10:39:00,
2013-07-09 06:54:00,68.0,67.4,29.93,South,180,0.0,-999.0,98,-99.99,,,0.00,Acu-Link.com,2013-07-09 10:54:00,
2013-07-09 07:10:00,68.4,67.8,29.93,South,180,0.0,-999.0,98,-99.99,,,0.00,Acu-Link.com,2013-07-09 11:10:00,
2013-07-09 07:25:00,69.3,68.7,29.92,South,180,0.0,-999.0,98,-99.99,,,0.00,Acu-Link.com,2013-07-09 11:25:00,
2013-07-09 07:41:00,69.8,69.2,29.92,South,180,0.0,-999.0,98,-99.99,,,0.00,Acu-Link.com,2013-07-09 11:41:00,
2013-07-09 07:56:00,71.1,70.5,29.92,NNE,22,1.1,-999.0,98,-99.99,,,0.00,Acu-Link.com,2013-07-09 11:56:00,
2013-07-09 08:11:00,71.8,71.2,29.92,NNE,22,1.1,-999.0,98,-99.99,,,0.00,Acu-Link.com,2013-07-09 12:11:00,
2013-07-09 08:26:00,72.9,72.3,29.93,South,180,1.1,-999.0,98,-99.99,,,0.00,Acu-Link.com,2013-07-09 12:26:00,
2013-07-09 08:41:00,73.8,73.2,29.93,South,180,0.0,-999.0,98,-99.99,,,0.00,Acu-Link.com,2013-07-09 12:41:00,
2013-07-09 08:57:00,74.8,74.2,29.94,SW,225,0.0,-999.0,98,-99.99,,,0.00,Acu-Link.com,2013-07-09 12:57:00,
2013-07-09 09:12:00,75.6,75.0,29.93,WSW,247,2.2,-999.0,98,-99.99,,,0.00,Acu-Link.com,2013-07-09 13:12:00,
2013-07-09 09:27:00,76.1,75.5,29.93,SSE,157,2.7,-999.0,98,-99.99,,,0.00,Acu-Link.com,2013-07-09 13:27:00,
2013-07-09 09:43:00,77.2,76.6,29.92,WSW,247,2.2,-999.0,98,-99.99,,,0.00,Acu-Link.com,2013-07-09 13:43:00,
2013-07-09 09:58:00,78.4,77.8,29.93,SE,135,2.2,-999.0,98,-99.99,,,0.00,Acu-Link.com,2013-07-09 13:58:00,
2013-07-09 10:13:00,79.2,78.6,29.93,ESE,112,0.0,-999.0,98,-99.99,,,0.00,Acu-Link.com,2013-07-09 14:13:00,
2013-07-09 10:29:00,79.3,78.7,29.93,SSW,202,2.7,-999.0,98,-99.99,,,0.00,Acu-Link.com,2013-07-09 14:29:00,
2013-07-09 10:44:00,79.9,79.3,29.93,SSW,202,3.7,-999.0,98,-99.99,,,0.00,Acu-Link.com,2013-07-09 14:44:00,
2013-07-09 10:59:00,80.6,80.0,29.93,SSW,202,2.2,-999.0,98,-99.99,,,0.00,Acu-Link.com,2013-07-09 14:59:00,
2013-07-09 11:15:00,82.6,82.0,29.93,North,0,1.7,-999.0,98,-99.99,,,0.00,Acu-Link.com,2013-07-09 15:15:00,
2013-07-09 11:30:00,83.8,83.2,29.92,SSE,157,2.2,-999.0,98,-99.99,,,0.00,Acu-Link.com,2013-07-09 15:30:00,
2013-07-09 11:45:00,84.2,83.6,29.93,South,180,2.7,-999.0,98,-99.99,,,0.00,Acu-Link.com,2013-07-09 15:45:00,
2013-07-09 12:01:00,84.0,83.4,29.93,SSW,202,2.7,-999.0,98,-99.99,,,0.00,Acu-Link.com,2013-07-09 16:01:00,
2013-07-09 12:16:00,85.3,84.7,29.92,ESE,112,0.0,-999.0,98,-99.99,,,0.00,Acu-Link.com,2013-07-09 16:16:00,
2013-07-09 12:31:00,85.3,84.7,29.92,NE,45,1.1,-999.0,98,-99.99,,,0.00,Acu-Link.com,2013-07-09 16:31:00,
2013-07-09 12:47:00,86.4,85.8,29.91,SSE,157,2.2,-999.0,98,-99.99,,,0.00,Acu-Link.com,2013-07-09 16:47:00,
2013-07-09 13:02:00,86.0,85.4,29.90,NNE,22,1.7,-999.0,98,-99.99,,,0.00,Acu-Link.com,2013-07-09 17:02:00,
2013-07-09 13:17:00,87.1,86.5,29.92,South,180,3.7,-999.0,98,-99.99,,,0.00,Acu-Link.com,2013-07-09 17:17:00,
2013-07-09 13:32:00,88.5,87.9,29.91,SSE,157,1.7,-999.0,98,-99.99,,,0.00,Acu-Link.com,2013-07-09 17:32:00,
2013-07-09 13:48:00,91.2,90.6,29.91,SSW,202,2.7,-999.0,98,-99.99,,,0.00,Acu-Link.com,2013-07-09 17:48:00,
2013-07-09 14:03:00,92.1,91.4,29.90,NNW,337,1.7,-999.0,98,-99.99,,,0.00,Acu-Link.com,2013-07-09 18:03:00,
2013-07-09 14:18:00,94.1,89.6,29.90,SSE,157,3.7,-999.0,87,-99.99,,,0.00,Acu-Link.com,2013-07-09 18:18:00,
2013-07-09 14:34:00,91.6,88.9,29.89,South,180,4.2,-999.0,92,-99.99,,,0.00,Acu-Link.com,2013-07-09 18:34:00,
2013-07-09 14:49:00,94.6,89.7,29.88,SSE,157,1.7,-999.0,86,-99.99,,,0.00,Acu-Link.com,2013-07-09 18:49:00,
2013-07-09 15:04:00,95.0,88.6,29.87,SW,225,3.2,-999.0,82,-99.99,,,0.00,Acu-Link.com,2013-07-09 19:04:00,
2013-07-09 15:20:00,99.7,78.9,29.85,North,0,2.7,-999.0,52,-99.99,,,0.00,Acu-Link.com,2013-07-09 19:20:00,
2013-07-09 15:35:00,98.1,77.4,29.88,NE,45,2.7,-999.0,52,-99.99,,,0.00,Acu-Link.com,2013-07-09 19:35:00,
2013-07-09 15:50:00,93.6,81.0,29.86,ESE,112,1.1,-999.0,67,-99.99,,,0.00,Acu-Link.com,2013-07-09 19:50:00,
2013-07-09 16:05:00,96.3,77.5,29.86,WNW,292,1.1,-999.0,55,-99.99,,,0.00,Acu-Link.com,2013-07-09 20:05:00,
2013-07-09 16:20:00,95.7,76.3,29.86,South,180,2.7,-999.0,54,-99.99,,,0.00,Acu-Link.com,2013-07-09 20:20:00,
2013-07-09 16:35:00,97.9,75.4,29.86,North,0,2.7,-999.0,49,-99.99,,,0.00,Acu-Link.com,2013-07-09 20:35:00,
2013-07-09 16:50:00,99.5,72.3,29.85,North,0,3.2,-999.0,42,-99.99,,,0.00,Acu-Link.com,2013-07-09 20:50:00,
2013-07-09 17:06:00,93.6,73.8,29.86,SSW,202,1.7,-999.0,53,-99.99,,,0.00,Acu-Link.com,2013-07-09 21:06:00,
2013-07-09 17:21:00,91.9,78.4,29.84,SW,225,3.2,-999.0,65,-99.99,,,0.00,Acu-Link.com,2013-07-09 21:21:00,
2013-07-09 17:36:00,90.5,80.2,29.82,SSE,157,3.7,-999.0,72,-99.99,,,0.00,Acu-Link.com,2013-07-09 21:36:00,
2013-07-09 17:52:00,90.3,80.9,29.83,SSE,157,2.7,-999.0,74,-99.99,,,0.00,Acu-Link.com,2013-07-09 21:52:00,
2013-07-09 18:07:00,88.3,87.7,29.83,West,270,1.7,-999.0,98,-99.99,,,0.00,Acu-Link.com,2013-07-09 22:07:00,
2013-07-09 18:22:00,86.9,86.3,29.82,South,180,0.0,-999.0,98,-99.99,,,0.00,Acu-Link.com,2013-07-09 22:22:00,
2013-07-09 18:38:00,86.0,85.4,29.82,West,270,0.0,-999.0,98,-99.99,,,0.00,Acu-Link.com,2013-07-09 22:38:00,
2013-07-09 18:53:00,85.1,84.5,29.83,West,270,0.0,-999.0,98,-99.99,,,0.00,Acu-Link.com,2013-07-09 22:53:00,
2013-07-09 19:08:00,84.2,83.6,29.83,West,270,0.0,-999.0,98,-99.99,,,0.00,Acu-Link.com,2013-07-09 23:08:00,
2013-07-09 19:24:00,83.3,82.7,29.84,South,180,0.0,-999.0,98,-99.99,,,0.00,Acu-Link.com,2013-07-09 23:24:00,
2013-07-09 19:39:00,83.1,82.5,29.84,NNE,22,0.0,-999.0,98,-99.99,,,0.00,Acu-Link.com,2013-07-09 23:39:00,
2013-07-09 19:54:00,82.2,81.6,29.84,SE,135,0.0,-999.0,98,-99.99,,,0.00,Acu-Link.com,2013-07-09 23:54:00,
2013-07-09 20:09:00,81.0,80.4,29.83,SSE,157,0.0,-999.0,98,-99.99,,,0.00,Acu-Link.com,2013-07-10 00:09:00,
2013-07-09 20:24:00,79.9,79.3,29.84,SSE,157,1.1,-999.0,98,-99.99,,,0.00,Acu-Link.com,2013-07-10 00:24:00,
2013-07-09 20:39:00,79.7,79.1,29.86,NW,315,0.0,-999.0,98,-99.99,,,0.00,Acu-Link.com,2013-07-10 00:39:00,
2013-07-09 20:55:00,79.2,78.6,29.86,South,180,0.0,-999.0,98,-99.99,,,0.00,Acu-Link.com,2013-07-10 00:55:00,
2013-07-09 21:11:00,78.1,77.5,29.88,SSE,157,0.0,-999.0,98,-99.99,,,0.00,Acu-Link.com,2013-07-10 01:11:00,
2013-07-09 21:26:00,77.4,76.8,29.86,South,180,2.2,-999.0,98,-99.99,,,0.00,Acu-Link.com,2013-07-10 01:26:00,
2013-07-09 21:41:00,77.5,76.9,29.86,West,270,0.0,-999.0,98,-99.99,,,0.00,Acu-Link.com,2013-07-10 01:41:00,
2013-07-09 21:57:00,77.4,76.8,29.87,ESE,112,0.0,-999.0,98,-99.99,,,0.00,Acu-Link.com,2013-07-10 01:57:00,
2013-07-09 22:12:00,77.4,76.8,29.86,SE,135,1.7,-999.0,98,-99.99,,,0.00,Acu-Link.com,2013-07-10 02:12:00,
2013-07-09 22:27:00,77.0,76.4,29.87,ENE,67,0.0,-999.0,98,-99.99,,,0.00,Acu-Link.com,2013-07-10 02:27:00,
2013-07-09 22:42:00,76.5,75.9,29.86,West,270,1.1,-999.0,98,-99.99,,,0.00,Acu-Link.com,2013-07-10 02:42:00,
2013-07-09 22:58:00,75.9,75.3,29.85,South,180,0.0,-999.0,98,-99.99,,,0.00,Acu-Link.com,2013-07-10 02:58:00,
2013-07-09 23:13:00,75.7,75.1,29.86,NNE,22,0.0,-999.0,98,-99.99,,,0.00,Acu-Link.com,2013-07-10 03:13:00,
2013-07-09 23:28:00,75.0,74.4,29.85,NNE,22,1.1,-999.0,98,-99.99,,,0.00,Acu-Link.com,2013-07-10 03:28:00,
2013-07-09 23:44:00,74.3,73.7,29.85,ESE,112,0.0,-999.0,98,-99.99,,,0.00,Acu-Link.com,2013-07-10 03:44:00,
2013-07-09 23:59:00,74.1,73.5,29.87,ESE,112,0.0,-999.0,98,-99.99,,,0.00,Acu-Link.com,2013-07-10 03:59:00,